Current weather by "City, St" or "zip code"  
 
Advertise Here

Current Conditions: Southland Field, LA

Overcast


64.0 F

Last Updated on Jan 20 2021, 11:55 am CST
Humidity: 71%
Wind Speed: E 4.6 mph
Barometer 30.32 in
Dewpoint: 54.0 F
Visibility: 10.00 mi
Precip: --
Heat Index: NA
Wind Chill: NA
Current conditions at:

Southland Field, LA (KUXL)

Lat: 30.1314 Lon: 93.3761

Local Radar Image active severe weather and emergency alerts image image weather storm and storm spotter reports image weather observation monitoring service image
Local
Radar
Active
Alerts
Storm Reports Obs
Monitoring

Sign-up For Email & Text Message Weather Alert Notification Services


Advertise Here

Observation History for Southland Field, LA


Time Wind
(mph)
Vis
(mi)
Weather Precip (in) Temperature (F) Relative
Humidity
Wind
Chill
(F)
Heat
Index
(F)
Pressure
Air Dwpt altimeter
(in)
sea level
(mb)
Rmks
11:55 am CST E 4.6 10.00 Overcast -- 64.0 54.0 71% NA NA 30.32 M
10:55 am CST NE 8.1 10.00 Overcast -- 63.0 54.0 74% 63 NA 30.35 M
9:55 am CST NE 8.1 10.00 Overcast -- 61.0 53.1 75% 60 NA 30.37 M
8:55 am CST NE 9.2 10.00 Overcast -- 61.0 54.0 78% 60 NA 30.35 M
7:55 am CST NE 10.4 7.00 Overcast -- 58.0 52.3 81% 56 NA 30.33 M
6:55 am CST NE 10.4 10.00 Overcast -- 58.0 52.3 82% 56 NA 30.35 M
5:55 am CST NE 9.2 G 16.1 10.00 Overcast -- 57.0 53.4 87% 55 NA 30.33 M
4:55 am CST NE 4.6 10.00 Overcast -- 58.0 55.9 94% 58 NA 30.34 M
3:55 am CST N 0.0 10.00 Overcast -- 59.0 57.4 96% NA NA 30.35 M
2:55 am CST N 3.5 7.00 Partly Cloudy -- 57.0 55.6 96% NA NA 30.35 M
1:55 am CST N 0.0 7.00 Fair -- 56.0 54.5 93% NA NA 30.36 M
12:55 am CST NE 4.6 2.50 Fog/Mist -- 55.0 52.7 91% 54 NA 30.35 M
11:55 pm CST N 0.0 10.00 Fair -- 56.0 54.0 91% NA NA 30.33 M
10:55 pm CST N 0.0 7.00 Fair -- 55.0 52.0 90% NA NA 30.34 M
9:55 pm CST N 0.0 7.00 Fair -- 54.0 51.1 89% NA NA 30.36 M
8:55 pm CST N 0.0 7.00 Fair -- 56.0 52.7 90% NA NA 30.35 M
7:55 pm CST N 0.0 10.00 Fair -- 57.0 53.1 87% NA NA 30.32 M
6:55 pm CST SE 5.8 10.00 Fair -- 61.0 55.8 83% 61 NA 30.30 M
5:55 pm CST SE 4.6 10.00 Fair -- 62.0 54.5 77% 62 NA 30.30 M
4:55 pm CST S 6.9 10.00 Fair -- 69.0 56.7 65% NA NA 30.28 M
3:55 pm CST S 10.4 10.00 Fair -- 72.0 55.6 57% NA NA 30.27 M
2:55 pm CST S 11.5 10.00 Fair -- 73.0 55.2 54% NA NA 30.26 M
1:55 pm CST S 11.5 10.00 Partly Cloudy -- 73.0 55.8 56% NA NA 30.27 M
12:55 pm CST S 13.8 10.00 Fair -- 73.0 56.3 56% NA NA 30.28 M

Regional Weather Observation


Southland Field, LA (KUXL)

Overcast
64.0 F

De Quincy Industrial Airpark, LA (K5R8)

Overcast
61.0 F

Lake Charles Regional Airport, LA (KLCH)

Overcast
61.0 F

Chenault Airpark, LA (KCWF)

Overcast
61.0 F

De Ridder, Beauregard Parish Airport, LA (KDRI)

Overcast
60.0 F

Beaumont Municipal Airport, TX (KBMT)

Overcast
64.0 F